date,time,SUV Intensity [MED/Hr],UV Index,Daily total [MED],Since Last [MED]
30/01/2023,00:02:20,0.000,0.0,0.0,0.0
30/01/2023,00:03:20,0.000,0.0,0.0,0.0
30/01/2023,00:04:20,0.000,0.0,0.0,0.0
30/01/2023,00:05:20,-0.000,0.0,0.0,0.0
30/01/2023,00:06:20,-0.000,0.0,0.0,0.0
30/01/2023,00:07:20,-0.000,0.0,0.0,0.0
30/01/2023,00:08:20,0.000,0.0,0.0,0.0
30/01/2023,00:09:20,-0.000,0.0,0.0,0.0
30/01/2023,00:10:20,-0.000,0.0,0.0,0.0
30/01/2023,00:11:19,0.000,0.0,0.0,0.0
30/01/2023,00:12:43,0.000,0.0,0.0,0.0
30/01/2023,00:13:20,0.000,0.0,0.0,0.0
30/01/2023,00:14:22,-0.000,0.0,0.0,0.0
30/01/2023,00:15:21,-0.000,0.0,0.0,0.0
30/01/2023,00:16:21,0.001,0.0,0.0,0.0
30/01/2023,00:17:20,-0.000,0.0,0.0,0.0
30/01/2023,00:18:20,-0.000,0.0,0.0,0.0
30/01/2023,00:19:20,-0.000,0.0,0.0,0.0
30/01/2023,00:20:20,-0.000,0.0,0.0,0.0
30/01/2023,00:21:20,-0.000,0.0,0.0,0.0
30/01/2023,00:22:20,-0.001,0.0,0.0,0.0
30/01/2023,00:23:20,-0.000,0.0,0.0,0.0
30/01/2023,00:24:20,0.000,0.0,0.0,0.0
30/01/2023,00:25:20,0.000,0.0,0.0,0.0
30/01/2023,00:26:20,-0.000,0.0,0.0,0.0
30/01/2023,00:27:20,-0.000,0.0,0.0,0.0
30/01/2023,00:28:20,0.000,0.0,0.0,0.0
30/01/2023,00:29:20,-0.000,0.0,0.0,0.0
30/01/2023,00:30:20,-0.001,0.0,0.0,0.0
30/01/2023,00:31:20,-0.002,0.0,0.0,0.0
30/01/2023,00:32:20,-0.000,0.0,0.0,0.0
30/01/2023,00:33:20,-0.000,0.0,0.0,0.0
30/01/2023,00:34:20,-0.002,0.0,0.0,0.0
30/01/2023,00:35:20,-0.000,0.0,0.0,0.0
30/01/2023,00:36:20,-0.001,0.0,0.0,0.0
30/01/2023,00:37:20,-0.002,0.0,0.0,0.0
30/01/2023,00:38:20,-0.001,0.0,0.0,0.0
30/01/2023,00:39:20,-0.001,0.0,0.0,0.0
30/01/2023,00:40:20,-0.001,0.0,0.0,0.0
30/01/2023,00:41:21,-0.001,0.0,0.0,0.0
30/01/2023,00:42:20,0.000,0.0,0.0,0.0
30/01/2023,00:43:20,-0.001,0.0,0.0,0.0
30/01/2023,00:44:20,-0.001,0.0,0.0,0.0
30/01/2023,00:45:20,0.000,0.0,0.0,0.0
30/01/2023,00:46:20,-0.001,0.0,0.0,0.0
30/01/2023,00:47:20,0.000,0.0,0.0,0.0
30/01/2023,00:48:20,-0.001,0.0,0.0,0.0
30/01/2023,00:49:20,-0.000,0.0,0.0,0.0
30/01/2023,00:50:20,-0.001,0.0,0.0,0.0
30/01/2023,00:51:20,-0.001,0.0,0.0,0.0
30/01/2023,00:52:20,-0.001,0.0,0.0,0.0
30/01/2023,00:53:20,-0.001,0.0,0.0,0.0
30/01/2023,00:54:20,-0.001,0.0,0.0,0.0
30/01/2023,00:55:21,-0.001,0.0,0.0,0.0
30/01/2023,00:56:20,-0.001,0.0,0.0,0.0
30/01/2023,00:57:20,-0.001,0.0,0.0,0.0
30/01/2023,00:58:20,-0.001,0.0,0.0,0.0
30/01/2023,00:59:21,-0.000,0.0,0.0,0.0
30/01/2023,01:00:20,-0.000,0.0,0.0,0.0
30/01/2023,01:01:20,-0.001,0.0,0.0,0.0
30/01/2023,01:02:20,-0.001,0.0,0.0,0.0
30/01/2023,01:03:20,-0.000,0.0,0.0,0.0
30/01/2023,01:04:20,-0.001,0.0,0.0,0.0
30/01/2023,01:05:20,-0.001,0.0,0.0,0.0
30/01/2023,01:06:20,-0.000,0.0,0.0,0.0
30/01/2023,01:07:20,-0.001,0.0,0.0,0.0
30/01/2023,01:08:20,-0.001,0.0,0.0,0.0
30/01/2023,01:09:20,0.000,0.0,0.0,0.0
30/01/2023,01:10:21,-0.000,0.0,0.0,0.0
30/01/2023,01:11:20,-0.001,0.0,0.0,0.0
30/01/2023,01:12:20,0.000,0.0,0.0,0.0
30/01/2023,01:13:20,-0.002,0.0,0.0,0.0
30/01/2023,01:14:20,-0.001,0.0,0.0,0.0
30/01/2023,01:15:20,-0.001,0.0,0.0,0.0
30/01/2023,01:16:20,-0.001,0.0,0.0,0.0
30/01/2023,01:17:20,0.000,0.0,0.0,0.0
30/01/2023,01:18:20,-0.000,0.0,0.0,0.0
30/01/2023,01:19:20,-0.001,0.0,0.0,0.0
30/01/2023,01:20:20,-0.001,0.0,0.0,0.0
30/01/2023,01:21:21,-0.001,0.0,0.0,0.0
30/01/2023,01:22:20,-0.001,0.0,0.0,0.0
30/01/2023,01:23:20,-0.002,0.0,0.0,0.0
30/01/2023,01:24:20,-0.001,0.0,0.0,0.0
30/01/2023,01:25:21,-0.001,0.0,0.0,0.0
30/01/2023,01:26:20,-0.001,0.0,0.0,0.0
30/01/2023,01:27:21,-0.001,0.0,0.0,0.0
30/01/2023,01:28:20,-0.001,0.0,0.0,0.0
30/01/2023,01:29:20,-0.001,0.0,0.0,0.0
30/01/2023,01:30:20,-0.002,0.0,0.0,0.0
30/01/2023,01:31:21,-0.002,0.0,0.0,0.0
30/01/2023,01:32:20,-0.000,0.0,0.0,0.0
30/01/2023,01:33:20,-0.001,0.0,0.0,0.0
30/01/2023,01:34:20,-0.001,0.0,0.0,0.0
30/01/2023,01:35:20,-0.001,0.0,0.0,0.0
30/01/2023,01:36:20,-0.000,0.0,0.0,0.0
30/01/2023,01:37:20,-0.001,0.0,0.0,0.0
30/01/2023,01:38:20,-0.001,0.0,0.0,0.0
30/01/2023,01:39:20,-0.002,0.0,0.0,0.0
30/01/2023,01:40:21,-0.001,0.0,0.0,0.0
30/01/2023,01:41:20,-0.001,0.0,0.0,0.0
30/01/2023,01:42:20,-0.002,0.0,0.0,0.0
30/01/2023,01:43:21,-0.000,0.0,0.0,0.0
30/01/2023,01:44:20,-0.002,0.0,0.0,0.0
30/01/2023,01:45:20,-0.001,0.0,0.0,0.0
30/01/2023,01:46:20,-0.001,0.0,0.0,0.0
30/01/2023,01:47:20,-0.001,0.0,0.0,0.0
30/01/2023,01:48:20,-0.001,0.0,0.0,0.0
30/01/2023,01:49:21,-0.001,0.0,0.0,0.0
30/01/2023,01:50:20,-0.000,0.0,0.0,0.0
30/01/2023,01:51:20,-0.001,0.0,0.0,0.0
30/01/2023,01:52:20,-0.002,0.0,0.0,0.0
30/01/2023,01:53:20,-0.002,0.0,0.0,0.0
30/01/2023,01:54:21,-0.001,0.0,0.0,0.0
30/01/2023,01:55:20,-0.001,0.0,0.0,0.0
30/01/2023,01:56:20,-0.001,0.0,0.0,0.0
30/01/2023,01:57:21,-0.000,0.0,0.0,0.0
30/01/2023,01:58:20,-0.001,0.0,0.0,0.0
30/01/2023,01:59:20,-0.001,0.0,0.0,0.0
30/01/2023,02:00:21,-0.001,0.0,0.0,0.0
30/01/2023,02:01:20,-0.001,0.0,0.0,0.0
30/01/2023,02:02:21,-0.001,0.0,0.0,0.0
30/01/2023,02:03:20,-0.002,0.0,0.0,0.0
30/01/2023,02:04:20,-0.001,0.0,0.0,0.0
30/01/2023,02:05:21,-0.001,0.0,0.0,0.0
30/01/2023,02:06:20,-0.001,0.0,0.0,0.0
30/01/2023,02:07:20,-0.002,0.0,0.0,0.0
30/01/2023,02:08:21,-0.001,0.0,0.0,0.0
30/01/2023,02:09:20,-0.001,0.0,0.0,0.0
30/01/2023,02:10:20,-0.001,0.0,0.0,0.0
30/01/2023,02:11:20,-0.001,0.0,0.0,0.0
30/01/2023,02:12:20,-0.001,0.0,0.0,0.0
30/01/2023,02:13:21,-0.001,0.0,0.0,0.0
30/01/2023,02:14:20,-0.001,0.0,0.0,0.0
30/01/2023,02:15:21,-0.001,0.0,0.0,0.0
30/01/2023,02:16:20,-0.000,0.0,0.0,0.0
30/01/2023,02:17:20,-0.002,0.0,0.0,0.0
30/01/2023,02:18:20,-0.001,0.0,0.0,0.0
30/01/2023,02:19:20,0.000,0.0,0.0,0.0
30/01/2023,02:20:20,-0.001,0.0,0.0,0.0
30/01/2023,02:21:20,-0.002,0.0,0.0,0.0
30/01/2023,02:22:21,-0.001,0.0,0.0,0.0
30/01/2023,02:23:20,0.000,0.0,0.0,0.0
30/01/2023,02:24:20,-0.000,0.0,0.0,0.0
30/01/2023,02:25:20,0.000,0.0,0.0,0.0
30/01/2023,02:26:19,-0.000,0.0,0.0,0.0
30/01/2023,02:27:42,-0.001,0.0,0.0,0.0
30/01/2023,02:28:20,-0.001,0.0,0.0,0.0
30/01/2023,02:29:20,-0.001,0.0,0.0,0.0
30/01/2023,02:30:20,-0.000,0.0,0.0,0.0
30/01/2023,02:31:20,-0.001,0.0,0.0,0.0
30/01/2023,02:32:21,0.000,0.0,0.0,0.0
30/01/2023,02:33:21,-0.001,0.0,0.0,0.0
30/01/2023,02:34:21,-0.001,0.0,0.0,0.0
30/01/2023,02:35:21,-0.000,0.0,0.0,0.0
30/01/2023,02:36:20,-0.001,0.0,0.0,0.0
30/01/2023,02:37:21,-0.001,0.0,0.0,0.0
30/01/2023,02:38:20,-0.002,0.0,0.0,0.0
30/01/2023,02:39:20,-0.001,0.0,0.0,0.0
30/01/2023,02:40:20,-0.000,0.0,0.0,0.0
30/01/2023,02:41:21,0.000,0.0,0.0,0.0
30/01/2023,02:42:20,-0.001,0.0,0.0,0.0
30/01/2023,02:43:20,-0.001,0.0,0.0,0.0
30/01/2023,02:44:20,-0.001,0.0,0.0,0.0
30/01/2023,02:45:21,-0.001,0.0,0.0,0.0
30/01/2023,02:46:20,-0.000,0.0,0.0,0.0
30/01/2023,02:47:20,-0.001,0.0,0.0,0.0
30/01/2023,02:48:21,0.000,0.0,0.0,0.0
30/01/2023,02:49:20,-0.001,0.0,0.0,0.0
30/01/2023,02:50:21,-0.001,0.0,0.0,0.0
30/01/2023,02:51:20,-0.001,0.0,0.0,0.0
30/01/2023,02:52:20,-0.001,0.0,0.0,0.0
30/01/2023,02:53:20,0.000,0.0,0.0,0.0
30/01/2023,02:54:20,0.000,0.0,0.0,0.0
30/01/2023,02:55:20,-0.001,0.0,0.0,0.0
30/01/2023,02:56:21,-0.000,0.0,0.0,0.0
30/01/2023,02:57:20,-0.001,0.0,0.0,0.0
30/01/2023,02:58:20,-0.002,0.0,0.0,0.0
30/01/2023,02:59:20,-0.001,0.0,0.0,0.0
30/01/2023,03:00:20,-0.001,0.0,0.0,0.0
30/01/2023,03:01:21,-0.002,0.0,0.0,0.0
30/01/2023,03:02:20,-0.001,0.0,0.0,0.0
30/01/2023,03:03:20,0.001,0.0,0.0,0.0
30/01/2023,03:04:20,-0.001,0.0,0.0,0.0
30/01/2023,03:05:20,-0.001,0.0,0.0,0.0
30/01/2023,03:06:20,-0.001,0.0,0.0,0.0
30/01/2023,03:07:23,0.000,0.0,0.0,0.0
30/01/2023,03:08:20,0.000,0.0,0.0,0.0
30/01/2023,03:09:20,-0.000,0.0,0.0,0.0
30/01/2023,03:10:21,-0.001,0.0,0.0,0.0
30/01/2023,03:11:20,-0.002,0.0,0.0,0.0
30/01/2023,03:12:20,-0.001,0.0,0.0,0.0
30/01/2023,03:13:21,-0.001,0.0,0.0,0.0
30/01/2023,03:14:21,-0.001,0.0,0.0,0.0
30/01/2023,03:15:21,-0.001,0.0,0.0,0.0
30/01/2023,03:16:20,-0.001,0.0,0.0,0.0
30/01/2023,03:17:20,0.001,0.0,0.0,0.0
30/01/2023,03:18:21,-0.001,0.0,0.0,0.0
30/01/2023,03:19:20,-0.001,0.0,0.0,0.0
30/01/2023,03:20:20,-0.000,0.0,0.0,0.0
30/01/2023,03:21:20,-0.000,0.0,0.0,0.0
30/01/2023,03:22:20,-0.000,0.0,0.0,0.0
30/01/2023,03:23:21,-0.000,0.0,0.0,0.0
30/01/2023,03:24:20,-0.000,0.0,0.0,0.0
30/01/2023,03:25:21,0.000,0.0,0.0,0.0
30/01/2023,03:26:20,-0.001,0.0,0.0,0.0
30/01/2023,03:27:20,-0.001,0.0,0.0,0.0
30/01/2023,03:28:20,-0.000,0.0,0.0,0.0
30/01/2023,03:29:20,-0.001,0.0,0.0,0.0
30/01/2023,03:30:21,-0.001,0.0,0.0,0.0
30/01/2023,03:31:20,-0.001,0.0,0.0,0.0
30/01/2023,03:32:21,-0.000,0.0,0.0,0.0
30/01/2023,03:33:20,0.000,0.0,0.0,0.0
30/01/2023,03:34:21,0.000,0.0,0.0,0.0
30/01/2023,03:35:20,-0.000,0.0,0.0,0.0
30/01/2023,03:36:21,-0.000,0.0,0.0,0.0
30/01/2023,03:37:20,0.000,0.0,0.0,0.0
30/01/2023,03:38:20,-0.000,0.0,0.0,0.0
30/01/2023,03:39:21,-0.000,0.0,0.0,0.0
30/01/2023,03:40:20,-0.000,0.0,0.0,0.0
30/01/2023,03:41:20,0.000,0.0,0.0,0.0
30/01/2023,03:42:20,-0.000,0.0,0.0,0.0
30/01/2023,03:43:20,-0.000,0.0,0.0,0.0
30/01/2023,03:44:20,-0.000,0.0,0.0,0.0
30/01/2023,03:45:20,-0.000,0.0,0.0,0.0
30/01/2023,03:46:20,-0.001,0.0,0.0,0.0
30/01/2023,03:47:21,0.000,0.0,0.0,0.0
30/01/2023,03:48:20,0.000,0.0,0.0,0.0
30/01/2023,03:49:20,-0.000,0.0,0.0,0.0
30/01/2023,03:50:21,-0.000,0.0,0.0,0.0
30/01/2023,03:51:20,-0.001,0.0,0.0,0.0
30/01/2023,03:52:20,0.000,0.0,0.0,0.0
30/01/2023,03:53:21,0.000,0.0,0.0,0.0
30/01/2023,03:54:20,-0.000,0.0,0.0,0.0
30/01/2023,03:55:20,-0.000,0.0,0.0,0.0
30/01/2023,03:56:20,-0.001,0.0,0.0,0.0
30/01/2023,03:57:20,-0.001,0.0,0.0,0.0
30/01/2023,03:58:21,-0.000,0.0,0.0,0.0
30/01/2023,03:59:20,-0.001,0.0,0.0,0.0
30/01/2023,04:00:20,-0.001,0.0,0.0,0.0
30/01/2023,04:01:21,-0.001,0.0,0.0,0.0
30/01/2023,04:02:21,-0.000,0.0,0.0,0.0
30/01/2023,04:03:21,0.000,0.0,0.0,0.0
30/01/2023,04:04:20,-0.000,0.0,0.0,0.0
30/01/2023,04:05:21,-0.000,0.0,0.0,0.0
30/01/2023,04:06:21,-0.001,0.0,0.0,0.0
30/01/2023,04:07:21,-0.000,0.0,0.0,0.0
30/01/2023,04:08:20,-0.000,0.0,0.0,0.0
30/01/2023,04:09:20,-0.000,0.0,0.0,0.0
30/01/2023,04:10:21,-0.000,0.0,0.0,0.0
30/01/2023,04:11:20,-0.000,0.0,0.0,0.0
30/01/2023,04:12:21,-0.000,0.0,0.0,0.0
30/01/2023,04:13:20,-0.000,0.0,0.0,0.0
30/01/2023,04:14:20,-0.000,0.0,0.0,0.0
30/01/2023,04:15:21,-0.000,0.0,0.0,0.0
30/01/2023,04:16:20,0.000,0.0,0.0,0.0
30/01/2023,04:17:21,0.000,0.0,0.0,0.0
30/01/2023,04:18:21,-0.001,0.0,0.0,0.0
30/01/2023,04:19:20,-0.000,0.0,0.0,0.0
30/01/2023,04:20:21,-0.000,0.0,0.0,0.0
30/01/2023,04:21:21,-0.000,0.0,0.0,0.0
30/01/2023,04:22:20,-0.000,0.0,0.0,0.0
30/01/2023,04:23:20,-0.001,0.0,0.0,0.0
30/01/2023,04:24:21,-0.001,0.0,0.0,0.0
30/01/2023,04:25:20,-0.000,0.0,0.0,0.0
30/01/2023,04:26:20,-0.000,0.0,0.0,0.0
30/01/2023,04:27:20,-0.000,0.0,0.0,0.0
30/01/2023,04:28:21,0.000,0.0,0.0,0.0
30/01/2023,04:29:21,0.000,0.0,0.0,0.0
30/01/2023,04:30:20,-0.000,0.0,0.0,0.0
30/01/2023,04:31:21,-0.000,0.0,0.0,0.0
30/01/2023,04:32:20,-0.000,0.0,0.0,0.0
30/01/2023,04:33:20,-0.001,0.0,0.0,0.0
30/01/2023,04:34:21,-0.000,0.0,0.0,0.0
30/01/2023,04:35:20,0.000,0.0,0.0,0.0
30/01/2023,04:36:21,-0.000,0.0,0.0,0.0
30/01/2023,04:37:20,0.000,0.0,0.0,0.0
30/01/2023,04:38:20,-0.000,0.0,0.0,0.0
30/01/2023,04:39:20,-0.000,0.0,0.0,0.0
30/01/2023,04:40:20,0.000,0.0,0.0,0.0
30/01/2023,04:41:21,0.000,0.0,0.0,0.0
30/01/2023,04:42:21,0.000,0.0,0.0,0.0
30/01/2023,04:44:06,-0.001,0.0,0.0,0.0
30/01/2023,04:45:21,0.000,0.0,0.0,0.0
30/01/2023,04:46:20,0.000,0.0,0.0,0.0
30/01/2023,04:47:21,0.000,0.0,0.0,0.0
30/01/2023,04:48:21,0.000,0.0,0.0,0.0
30/01/2023,04:49:21,0.000,0.0,0.0,0.0
30/01/2023,04:50:20,0.000,0.0,0.0,0.0
30/01/2023,04:51:21,0.000,0.0,0.0,0.0
30/01/2023,04:52:20,0.000,0.0,0.0,0.0
30/01/2023,04:53:20,0.000,0.0,0.0,0.0
30/01/2023,04:54:21,0.000,0.0,0.0,0.0
30/01/2023,04:55:20,0.000,0.0,0.0,0.0
30/01/2023,04:56:20,0.000,0.0,0.0,0.0
30/01/2023,04:57:21,0.000,0.0,0.0,0.0
30/01/2023,04:58:21,0.000,0.0,0.0,0.0
30/01/2023,04:59:20,-0.001,0.0,0.0,0.0
30/01/2023,05:00:20,0.000,0.0,0.0,0.0
30/01/2023,05:01:20,-0.000,0.0,0.0,0.0
30/01/2023,05:02:21,0.000,0.0,0.0,0.0
30/01/2023,05:03:20,0.000,0.0,0.0,0.0
30/01/2023,05:04:20,-0.000,0.0,0.0,0.0
30/01/2023,05:05:21,-0.001,0.0,0.0,0.0
30/01/2023,05:06:20,0.000,0.0,0.0,0.0
30/01/2023,05:07:21,-0.001,0.0,0.0,0.0
30/01/2023,05:08:20,-0.000,0.0,0.0,0.0
30/01/2023,05:09:20,-0.000,0.0,0.0,0.0
30/01/2023,05:10:21,-0.001,0.0,0.0,0.0
30/01/2023,05:11:20,-0.001,0.0,0.0,0.0
30/01/2023,05:12:21,-0.000,0.0,0.0,0.0
30/01/2023,05:13:21,-0.001,0.0,0.0,0.0
30/01/2023,05:14:21,-0.000,0.0,0.0,0.0
30/01/2023,05:15:20,0.000,0.0,0.0,0.0
30/01/2023,05:16:21,-0.001,0.0,0.0,0.0
30/01/2023,05:17:21,-0.000,0.0,0.0,0.0
30/01/2023,05:18:20,-0.000,0.0,0.0,0.0
30/01/2023,05:19:21,-0.000,0.0,0.0,0.0
30/01/2023,05:20:21,-0.000,0.0,0.0,0.0
30/01/2023,05:21:21,-0.000,0.0,0.0,0.0
30/01/2023,05:22:21,0.000,0.0,0.0,0.0
30/01/2023,05:23:21,-0.000,0.0,0.0,0.0
30/01/2023,05:24:21,-0.000,0.0,0.0,0.0
30/01/2023,05:25:21,-0.000,0.0,0.0,0.0
30/01/2023,05:26:21,-0.000,0.0,0.0,0.0
30/01/2023,05:27:21,-0.000,0.0,0.0,0.0
30/01/2023,05:28:20,-0.000,0.0,0.0,0.0
30/01/2023,05:29:21,-0.000,0.0,0.0,0.0
30/01/2023,05:30:20,-0.000,0.0,0.0,0.0
30/01/2023,05:31:21,0.000,0.0,0.0,0.0
30/01/2023,05:32:21,0.000,0.0,0.0,0.0
30/01/2023,05:33:20,-0.000,0.0,0.0,0.0
30/01/2023,05:34:21,-0.000,0.0,0.0,0.0
30/01/2023,05:35:20,0.000,0.0,0.0,0.0
30/01/2023,05:36:20,-0.000,0.0,0.0,0.0
30/01/2023,05:37:21,-0.000,0.0,0.0,0.0
30/01/2023,05:38:20,-0.000,0.0,0.0,0.0
30/01/2023,05:39:20,0.000,0.0,0.0,0.0
30/01/2023,05:40:21,0.000,0.0,0.0,0.0
30/01/2023,05:41:21,0.001,0.0,0.0,0.0
30/01/2023,05:42:21,-0.000,0.0,0.0,0.0
30/01/2023,05:43:21,-0.001,0.0,0.0,0.0
30/01/2023,05:44:21,0.000,0.0,0.0,0.0
30/01/2023,05:45:20,-0.001,0.0,0.0,0.0
30/01/2023,05:46:21,-0.001,0.0,0.0,0.0
30/01/2023,05:47:20,0.000,0.0,0.0,0.0
30/01/2023,05:48:20,0.000,0.0,0.0,0.0
30/01/2023,05:49:21,0.000,0.0,0.0,0.0
30/01/2023,05:50:20,-0.000,0.0,0.0,0.0
30/01/2023,05:51:21,0.000,0.0,0.0,0.0
30/01/2023,05:52:21,0.000,0.0,0.0,0.0
30/01/2023,05:53:20,0.000,0.0,0.0,0.0
30/01/2023,05:54:21,0.000,0.0,0.0,0.0
30/01/2023,05:55:20,0.000,0.0,0.0,0.0
30/01/2023,05:56:21,0.000,0.0,0.0,0.0
30/01/2023,05:57:22,0.000,0.0,0.0,0.0
30/01/2023,05:58:21,0.000,0.0,0.0,0.0
30/01/2023,05:59:21,0.000,0.0,0.0,0.0
30/01/2023,06:00:20,0.000,0.0,0.0,0.0
30/01/2023,06:01:21,0.000,0.0,0.0,0.0
30/01/2023,06:02:21,0.000,0.0,0.0,0.0
30/01/2023,06:03:21,0.000,0.0,0.0,0.0
30/01/2023,06:04:20,0.000,0.0,0.0,0.0
30/01/2023,06:05:21,0.000,0.0,0.0,0.0
30/01/2023,06:06:21,0.000,0.0,0.0,0.0
30/01/2023,06:07:20,0.000,0.0,0.0,0.0
30/01/2023,06:08:21,0.000,0.0,0.0,0.0
30/01/2023,06:09:20,0.000,0.0,0.0,0.0
30/01/2023,06:10:20,0.000,0.0,0.0,0.0
30/01/2023,06:11:21,0.000,0.0,0.0,0.0
30/01/2023,06:12:21,0.000,0.0,0.0,0.0
30/01/2023,06:13:21,0.000,0.0,0.0,0.0
30/01/2023,06:14:21,0.000,0.0,0.0,0.0
30/01/2023,06:15:20,0.000,0.0,0.0,0.0
30/01/2023,06:16:21,0.000,0.0,0.0,0.0
30/01/2023,06:17:20,-0.000,0.0,0.0,0.0
30/01/2023,06:18:21,0.000,0.0,0.0,0.0
30/01/2023,06:19:21,0.000,0.0,0.0,0.0
30/01/2023,06:20:21,0.000,0.0,0.0,0.0
30/01/2023,06:21:20,0.000,0.0,0.0,0.0
30/01/2023,06:22:20,-0.000,0.0,0.0,0.0
30/01/2023,06:23:21,0.000,0.0,0.0,0.0
30/01/2023,06:24:21,0.000,0.0,0.0,0.0
30/01/2023,06:25:21,0.000,0.0,0.0,0.0
30/01/2023,06:26:20,0.000,0.0,0.0,0.0
30/01/2023,06:27:20,0.000,0.0,0.0,0.0
30/01/2023,06:28:21,0.000,0.0,0.0,0.0
30/01/2023,06:29:21,0.000,0.0,0.0,0.0
30/01/2023,06:30:21,0.000,0.0,0.0,0.0
30/01/2023,06:31:21,0.000,0.0,0.0,0.0
30/01/2023,06:32:21,0.000,0.0,0.0,0.0
30/01/2023,06:33:20,0.000,0.0,0.0,0.0
30/01/2023,06:34:21,0.000,0.0,0.0,0.0
30/01/2023,06:35:20,0.000,0.0,0.0,0.0
30/01/2023,06:36:20,0.000,0.0,0.0,0.0
30/01/2023,06:37:21,0.000,0.0,0.0,0.0
30/01/2023,06:38:20,0.000,0.0,0.0,0.0
30/01/2023,06:39:21,0.001,0.0,0.0,0.0
30/01/2023,06:40:21,0.000,0.0,0.0,0.0
30/01/2023,06:41:21,0.000,0.0,0.0,0.0
30/01/2023,06:42:21,0.000,0.0,0.0,0.0
30/01/2023,06:43:21,0.000,0.0,0.0,0.0
30/01/2023,06:44:20,0.000,0.0,0.0,0.0
30/01/2023,06:45:21,0.000,0.0,0.0,0.0
30/01/2023,06:46:21,0.000,0.0,0.0,0.0
30/01/2023,06:47:21,0.000,0.0,0.0,0.0
30/01/2023,06:48:21,0.000,0.0,0.0,0.0
30/01/2023,06:49:21,0.000,0.0,0.0,0.0
30/01/2023,06:50:21,0.001,0.0,0.0,0.0
30/01/2023,06:51:20,0.001,0.0,0.0,0.0
30/01/2023,06:52:21,0.001,0.0,0.0,0.0
30/01/2023,06:53:21,0.001,0.0,0.0,0.0
30/01/2023,06:54:21,0.000,0.0,0.0,0.0
30/01/2023,06:55:21,0.001,0.0,0.0,0.0
30/01/2023,06:56:21,0.001,0.0,0.0,0.0
30/01/2023,06:57:20,0.001,0.0,0.0,0.0
30/01/2023,06:58:21,0.001,0.0,0.0,0.0
30/01/2023,06:59:20,0.001,0.0,0.0,0.0
30/01/2023,07:00:21,0.001,0.0,0.0,0.0
30/01/2023,07:01:20,0.000,0.0,0.0,0.0
30/01/2023,07:02:20,0.001,0.0,0.0,0.0
30/01/2023,07:03:21,0.001,0.0,0.0,0.0
30/01/2023,07:04:20,0.001,0.0,0.0,0.0
30/01/2023,07:05:21,0.001,0.0,0.0,0.0
30/01/2023,07:06:20,0.001,0.0,0.0,0.0
30/01/2023,07:07:21,0.000,0.0,0.0,0.0
30/01/2023,07:08:21,0.001,0.0,0.0,0.0
30/01/2023,07:09:21,0.001,0.0,0.0,0.0
30/01/2023,07:10:20,0.001,0.0,0.0,0.0
30/01/2023,07:11:21,0.001,0.0,0.0,0.0
30/01/2023,07:12:20,0.000,0.0,0.0,0.0
30/01/2023,07:13:21,0.001,0.0,0.0,0.0
30/01/2023,07:14:23,0.002,0.0,0.0,0.0
30/01/2023,07:15:20,0.001,0.0,0.0,0.0
30/01/2023,07:16:21,0.001,0.0,0.0,0.0
30/01/2023,07:17:21,0.001,0.0,0.0,0.0
30/01/2023,07:18:21,0.001,0.0,0.0,0.0
30/01/2023,07:19:21,0.001,0.0,0.0,0.0
30/01/2023,07:20:21,0.001,0.0,0.0,0.0
30/01/2023,07:21:21,0.001,0.0,0.0,0.0
30/01/2023,07:22:21,0.000,0.0,0.0,0.0
30/01/2023,07:23:21,0.001,0.0,0.0,0.0
30/01/2023,07:24:21,0.001,0.0,0.0,0.0
30/01/2023,07:25:21,0.001,0.0,0.0,0.0
30/01/2023,07:26:21,0.001,0.0,0.0,0.0
30/01/2023,07:27:21,0.001,0.0,0.0,0.0
30/01/2023,07:28:20,0.001,0.0,0.0,0.0
30/01/2023,07:29:21,0.001,0.0,0.0,0.0
30/01/2023,07:30:23,0.001,0.0,0.0,0.0
30/01/2023,07:31:21,0.001,0.0,0.0,0.0
30/01/2023,07:32:20,0.001,0.0,0.0,0.0
30/01/2023,07:33:21,0.001,0.0,0.0,0.0
30/01/2023,07:34:21,0.001,0.0,0.0,0.0
30/01/2023,07:35:22,0.002,0.0,0.0,0.0
30/01/2023,07:36:21,0.002,0.0,0.0,0.0
30/01/2023,07:37:21,0.002,0.0,0.0,0.0
30/01/2023,07:38:21,0.001,0.0,0.0,0.0
30/01/2023,07:39:21,0.002,0.0,0.0,0.0
30/01/2023,07:40:20,0.002,0.0,0.0,0.0
30/01/2023,07:41:19,0.002,0.0,0.0,0.0
30/01/2023,07:42:21,0.002,0.0,0.0,0.0
30/01/2023,07:43:21,0.002,0.0,0.0,0.0
30/01/2023,07:44:21,0.004,0.0,0.0,0.0
30/01/2023,07:45:21,0.002,0.0,0.0,0.0
30/01/2023,07:46:21,0.003,0.0,0.0,0.0
30/01/2023,07:47:21,0.003,0.0,0.0,0.0
30/01/2023,07:48:21,0.003,0.0,0.0,0.0
30/01/2023,07:49:20,0.003,0.0,0.0,0.0
30/01/2023,07:50:21,0.004,0.0,0.0,0.0
30/01/2023,07:51:21,0.005,0.0,0.0,0.0
30/01/2023,07:52:21,0.004,0.0,0.0,0.0
30/01/2023,07:53:21,0.004,0.0,0.0,0.0
30/01/2023,07:54:21,0.005,0.0,0.0,0.0
30/01/2023,07:55:21,0.005,0.0,0.0,0.0
30/01/2023,07:56:21,0.005,0.0,0.0,0.0
30/01/2023,07:57:20,0.005,0.0,0.0,0.0
30/01/2023,07:58:20,0.005,0.0,0.0,0.0
30/01/2023,07:59:21,0.006,0.0,0.0,0.0
30/01/2023,08:00:21,0.006,0.0,0.0,0.0
30/01/2023,08:01:21,0.007,0.0,0.0,0.0
30/01/2023,08:02:21,0.006,0.0,0.0,0.0
30/01/2023,08:03:21,0.007,0.0,0.0,0.0
30/01/2023,08:04:21,0.007,0.0,0.0,0.0
30/01/2023,08:05:21,0.007,0.0,0.001,0.001
30/01/2023,08:06:21,0.008,0.0,0.001,0.0
30/01/2023,08:07:21,0.008,0.0,0.001,0.0
30/01/2023,08:08:20,0.008,0.0,0.001,0.0
30/01/2023,08:09:21,0.008,0.0,0.001,0.0
30/01/2023,08:10:21,0.008,0.0,0.001,0.0
30/01/2023,08:11:21,0.009,0.0,0.001,0.0
30/01/2023,08:12:21,0.010,0.0,0.001,0.0
30/01/2023,08:13:21,0.010,0.0,0.002,0.001
30/01/2023,08:14:21,0.010,0.0,0.002,0.0
30/01/2023,08:15:21,0.010,0.0,0.002,0.0
30/01/2023,08:16:21,0.010,0.0,0.002,0.0
30/01/2023,08:17:21,0.010,0.0,0.002,0.0
30/01/2023,08:18:20,0.011,0.0,0.002,0.0
30/01/2023,08:19:20,0.011,0.0,0.003,0.001
30/01/2023,08:20:21,0.011,0.0,0.003,0.0
30/01/2023,08:21:21,0.012,0.0,0.003,0.0
30/01/2023,08:22:21,0.011,0.0,0.003,0.0
30/01/2023,08:23:21,0.013,0.0,0.003,0.0
30/01/2023,08:24:21,0.013,0.0,0.004,0.001
30/01/2023,08:25:21,0.014,0.0,0.004,0.0
30/01/2023,08:26:21,0.014,0.0,0.004,0.0
30/01/2023,08:27:21,0.014,0.0,0.004,0.0
30/01/2023,08:28:20,0.014,0.0,0.005,0.001
30/01/2023,08:29:20,0.015,0.0,0.005,0.0
30/01/2023,08:30:21,0.016,0.0,0.005,0.0
30/01/2023,08:31:21,0.017,0.0,0.005,0.0
30/01/2023,08:32:21,0.016,0.0,0.006,0.001
30/01/2023,08:33:21,0.017,0.0,0.006,0.0
30/01/2023,08:34:21,0.018,0.0,0.006,0.0
30/01/2023,08:35:21,0.018,0.0,0.006,0.0
30/01/2023,08:36:21,0.019,0.0,0.007,0.001
30/01/2023,08:37:21,0.019,0.0,0.007,0.0
30/01/2023,08:38:21,0.020,0.0,0.007,0.0
30/01/2023,08:39:21,0.021,0.0,0.008,0.001
30/01/2023,08:40:21,0.022,0.0,0.008,0.0
30/01/2023,08:41:21,0.023,0.0,0.008,0.0
30/01/2023,08:42:21,0.024,0.0,0.009,0.001
30/01/2023,08:43:21,0.025,0.0,0.009,0.0
30/01/2023,08:44:21,0.026,0.0,0.01,0.001
30/01/2023,08:45:21,0.029,0.0,0.01,0.0
30/01/2023,08:46:21,0.029,0.0,0.011,0.001
30/01/2023,08:47:21,0.030,0.0,0.011,0.0
30/01/2023,08:48:20,0.032,0.0,0.012,0.001
30/01/2023,08:49:21,0.032,0.0,0.012,0.0
30/01/2023,08:50:21,0.034,0.0,0.013,0.001
30/01/2023,08:51:21,0.035,0.0,0.013,0.0
30/01/2023,08:52:21,0.036,0.0,0.014,0.001
30/01/2023,08:53:21,0.037,0.0,0.014,0.0
30/01/2023,08:54:21,0.039,0.0,0.015,0.001
30/01/2023,08:55:21,0.040,0.0,0.016,0.001
30/01/2023,08:56:21,0.041,0.0,0.016,0.0
30/01/2023,08:57:21,0.043,0.0,0.017,0.001
30/01/2023,08:58:21,0.044,0.0,0.018,0.001
30/01/2023,08:59:22,0.044,0.0,0.019,0.001
30/01/2023,09:00:21,0.047,0.0,0.019,0.0
30/01/2023,09:01:21,0.048,0.0,0.02,0.001
30/01/2023,09:02:21,0.049,0.0,0.021,0.001
30/01/2023,09:03:21,0.049,0.0,0.022,0.001
30/01/2023,09:04:21,0.051,0.0,0.023,0.001
30/01/2023,09:05:21,0.052,0.0,0.023,0.0
30/01/2023,09:06:21,0.052,0.0,0.024,0.001
30/01/2023,09:07:21,0.054,0.0,0.025,0.001
30/01/2023,09:08:21,0.055,0.0,0.026,0.001
30/01/2023,09:09:21,0.057,0.0,0.027,0.001
30/01/2023,09:10:21,0.058,0.0,0.028,0.001
30/01/2023,09:11:21,0.059,0.0,0.029,0.001
30/01/2023,09:12:20,0.061,0.0,0.03,0.001
30/01/2023,09:13:21,0.063,0.0,0.031,0.001
30/01/2023,09:14:21,0.064,0.0,0.032,0.001
30/01/2023,09:15:21,0.066,0.0,0.033,0.001
30/01/2023,09:16:21,0.068,0.0,0.034,0.001
30/01/2023,09:17:21,0.070,0.0,0.035,0.001
30/01/2023,09:18:21,0.070,0.0,0.037,0.002
30/01/2023,09:19:21,0.072,0.0,0.038,0.001
30/01/2023,09:20:21,0.073,0.0,0.039,0.001
30/01/2023,09:21:21,0.074,0.0,0.04,0.001
30/01/2023,09:22:21,0.074,0.0,0.042,0.002
30/01/2023,09:23:21,0.076,0.0,0.043,0.001
30/01/2023,09:24:21,0.078,0.0,0.044,0.001
30/01/2023,09:25:21,0.079,0.0,0.045,0.001
30/01/2023,09:26:21,0.080,0.0,0.047,0.002
30/01/2023,09:27:21,0.083,0.0,0.048,0.001
30/01/2023,09:28:21,0.084,0.0,0.049,0.001
30/01/2023,09:29:21,0.088,0.0,0.051,0.002
30/01/2023,09:30:21,0.090,0.0,0.052,0.001
30/01/2023,09:31:21,0.093,0.0,0.054,0.002
30/01/2023,09:32:21,0.095,0.0,0.055,0.001
30/01/2023,09:33:21,0.096,0.0,0.057,0.002
30/01/2023,09:34:21,0.098,0.0,0.059,0.002
30/01/2023,09:35:21,0.100,0.0,0.06,0.001
30/01/2023,09:36:21,0.101,0.0,0.062,0.002
30/01/2023,09:37:21,0.104,0.0,0.064,0.002
30/01/2023,09:38:21,0.105,0.0,0.065,0.001
30/01/2023,09:39:21,0.106,0.0,0.067,0.002
30/01/2023,09:40:21,0.109,0.0,0.069,0.002
30/01/2023,09:41:21,0.110,0.0,0.071,0.002
30/01/2023,09:42:21,0.112,0.0,0.073,0.002
30/01/2023,09:43:21,0.114,0.0,0.074,0.001
30/01/2023,09:44:21,0.115,0.0,0.076,0.002
30/01/2023,09:45:21,0.117,0.0,0.078,0.002
30/01/2023,09:46:21,0.119,0.0,0.08,0.002
30/01/2023,09:47:21,0.120,0.0,0.082,0.002
30/01/2023,09:48:21,0.122,0.0,0.084,0.002
30/01/2023,09:49:21,0.125,0.0,0.086,0.002
30/01/2023,09:50:21,0.126,0.0,0.088,0.002
30/01/2023,09:51:21,0.127,0.0,0.091,0.003
30/01/2023,09:52:21,0.130,0.0,0.093,0.002
30/01/2023,09:53:21,0.133,0.0,0.095,0.002
30/01/2023,09:54:21,0.136,0.0,0.097,0.002
30/01/2023,09:55:21,0.138,0.0,0.099,0.002
30/01/2023,09:56:21,0.141,0.0,0.102,0.003
30/01/2023,09:57:21,0.143,0.0,0.104,0.002
30/01/2023,09:58:22,0.146,0.0,0.107,0.003
30/01/2023,09:59:21,0.148,0.0,0.109,0.002
30/01/2023,10:00:21,0.150,0.0,0.111,0.002
30/01/2023,10:01:21,0.153,0.0,0.114,0.003
30/01/2023,10:02:21,0.154,0.0,0.116,0.002
30/01/2023,10:03:22,0.155,0.0,0.119,0.003
30/01/2023,10:04:21,0.156,0.0,0.122,0.003
30/01/2023,10:05:21,0.158,0.0,0.124,0.002
30/01/2023,10:06:21,0.160,0.0,0.127,0.003
30/01/2023,10:07:21,0.161,0.0,0.13,0.003
30/01/2023,10:08:24,0.163,0.0,0.132,0.002
30/01/2023,10:09:22,0.165,0.0,0.135,0.003
30/01/2023,10:10:21,0.166,0.0,0.138,0.003
30/01/2023,10:11:21,0.168,0.0,0.141,0.003
30/01/2023,10:12:21,0.169,0.0,0.143,0.002
30/01/2023,10:13:21,0.170,0.0,0.146,0.003